Notices

What's New in latest Release from April 7th, 2021:

- Updated Glossary, including Speed of Maximum Gust, and Total Hourly Precipitation

- Updated national and regional climate services offices contacts and prices information

- Addition of station inventory lists for 1981-2010, 1971-2000, and 1961-1990 Normals.

If you haven't already, please take our survey and provide feedback about our website: https://eccc.sondage-survey.ca/f/LanguageSelection.aspx?s=442ca660-fcf1-47c0-95a9-59707d6fd709

Hourly Data Report for December 24, 2016

CARBERRY CS
MANITOBA

49°54'20.900" N
99°21'26.800" W
383.50 m
5010547
71170
WZE

Download Data

Hourly Data (December 2016)
Hourly Data Report for December 24, 2016
TIME
LST
Temp Definition
°C
Dew Point Definition
°C
Rel Hum Definition
%
Precip. Amount Definition
mm

Wind Dir Definition
10's deg

Wind Spd Definition
km/h
Visibility Definition
km
Stn Press Definition
kPa
Hmdx Definition


Wind Chill Definition


Weather Definition


00:00 -16.2 -19.0 79 0.0 1 23   97.43   -26 LegendNANA
01:00 -17.1 -20.0 78 0.0 1 25   97.55   -28 LegendNANA
02:00 -17.6 -20.8 76 0.0 1 22   97.65   -28 LegendNANA
03:00 -17.7 -20.9 76 0.0 1 19   97.81   -27 LegendNANA
04:00 -18.0 -21.0 77 0.0 1 23   97.85   -29 LegendNANA
05:00 -18.0 -21.0 77 0.0 3 20   97.89   -28 LegendNANA
06:00 -18.3 -21.2 78 0.0 2 20   97.96   -28 LegendNANA
07:00 -18.5 -21.3 79 0.0 3 23   98.02   -29 LegendNANA
08:00 -18.9 -21.5 80 0.0 4 19   98.11   -29 LegendNANA
09:00 -19.1 -21.7 80 0.0 3 20   98.15   -29 LegendNANA
10:00 -19.4 -22.2 78 0.0 3 20   98.27   -30 LegendNANA
11:00 -19.4 -22.8 75 0.0 3 17   98.39   -29 LegendNANA
12:00 -19.4 -23.1 72 0.0 3 19   98.34   -29 LegendNANA
13:00 -19.1 -23.2 70 0.0 3 16   98.39   -28 LegendNANA
14:00 -19.4 -23.2 71 0.0 4 19   98.32   -29 LegendNANA
15:00 -19.4 -23.1 72 0.0 4 19   98.33   -29 LegendNANA
16:00 -19.8 -23.0 76 0.0 4 19   98.33   -30 LegendNANA
17:00 -19.9 -22.8 78 0.0 4 19   98.35   -30 LegendNANA
18:00 -19.6 -22.4 78 0.0 4 19   98.37   -30 LegendNANA
19:00 -19.4 -22.1 79 0.0 4 20   98.35   -30 LegendNANA
20:00 -19.2 -21.8 80 0.0 4 20   98.39   -29 LegendNANA
21:00 -19.4 -21.9 80 0.0 4 21   98.37   -30 LegendNANA
22:00 -19.2 -21.8 80 0.0 5 16   98.38   -28 LegendNANA
23:00 -18.7 -21.3 80 0.0 5 22   98.32   -29 LegendNANA

Notes on Data Quality.

Legend

  • E = Estimated
  • M = Missing
  • NA = Not Available*
  • [empty] = Indicates an unobserved value
Date modified: